Location: Brunembert
(50.7122°N, 1.8935°E)
Time: 10:40:59
(UTC+00:00)

Cosmos 1850 Rocket - Pass Details

Date: 22 April 2021
Orbit: 753 x 786 km, 74.0° (Epoch: 05 May)

Event Time Altitude Azimuth Distance (km) Brightness Sun altitude
Exits shadow 22:08:07 40° 210° (SSW) 1,114 4.5 -22.9°
Maximum altitude 22:10:03 83° 294° (WNW) 776 4.0 -23.1°
Drops below altitude 10° 22:15:20 10° 23° (NNE) 2,321 7.0 -23.4°
Sets 22:17:44 0° 25° (NNE) 3,258 7.8 -23.6°
